Total_Precipitation_Accumulation
0.91 1.07 1.25 1.55 1.78 2.05 2.32 2.39 2.63 2.81 2.98 3.06 3.00 2.82 2.61 2.45 2.35 2.29 2.23 2.06 1.88 1.76 1.59 1.46 1.43 1.43 1.36 1.24 1.17 1.13 1.01 0.93 0.94 0.91 0.76 0.64 0.57 0.51 0.46 0.47 0.47 0.43 0.39
0.76 0.87 1.02 1.28 1.48 1.66 1.85 2.00 2.18 2.42 2.63 2.75 2.73 2.75 2.78 2.61 2.39 2.30 2.25 2.21 2.13 1.99 1.81 1.63 1.56 1.53 1.50 1.37 1.29 1.31 1.27 1.15 1.13 1.11 1.06 0.89 0.73 0.57 0.50 0.49 0.47 0.47 0.49
0.66 0.72 0.82 1.06 1.21 1.34 1.53 1.67 1.83 1.99 2.11 2.48 2.73 2.74 2.81 2.73 2.43 2.18 2.02 2.10 2.19 2.20 2.05 1.87 1.81 1.73 1.70 1.62 1.52 1.47 1.43 1.39 1.33 1.33 1.43 1.23 0.93 0.69 0.58 0.57 0.54 0.51 0.55
0.68 0.72 0.77 0.91 0.99 1.06 1.26 1.46 1.64 1.79 1.83 2.09 2.37 2.41 2.29 2.24 2.14 2.07 2.09 2.13 2.16 2.21 2.21 2.10 1.97 1.89 1.83 1.77 1.83 1.86 1.75 1.65 1.49 1.39 1.31 1.28 1.12 1.05 0.84 0.66 0.64 0.61 0.57
0.62 0.70 0.73 0.78 0.85 0.88 0.97 1.18 1.46 1.61 1.67 1.74 1.94 2.15 2.20 2.16 2.18 2.17 2.15 2.09 2.01 2.04 2.13 2.14 2.03 1.85 1.73 1.67 1.73 1.82 1.87 1.76 1.62 1.50 1.41 1.34 1.19 1.10 1.09 0.89 0.72 0.69 0.63
0.59 0.64 0.63 0.65 0.76 0.75 0.76 0.90 1.11 1.40 1.56 1.63 1.72 1.84 1.93 1.91 1.94 2.03 2.07 2.09 1.99 1.88 1.89 1.94 1.91 1.87 1.76 1.64 1.66 1.78 1.86 1.86 1.80 1.65 1.49 1.41 1.32 1.14 1.14 1.09 0.91 0.86 0.78
0.55 0.59 0.63 0.68 0.71 0.70 0.65 0.71 0.84 1.09 1.32 1.40 1.42 1.52 1.68 1.73 1.71 1.76 1.89 1.94 1.89 1.78 1.79 1.88 1.86 1.87 1.81 1.77 1.72 1.72 1.70 1.74 1.76 1.68 1.56 1.41 1.28 1.22 1.29 1.32 1.17 1.04 0.91
0.48 0.52 0.55 0.59 0.58 0.58 0.61 0.65 0.73 0.83 0.95 1.05 1.13 1.24 1.36 1.46 1.45 1.45 1.57 1.66 1.64 1.64 1.63 1.74 1.80 1.82 1.83 1.81 1.78 1.73 1.66 1.64 1.66 1.60 1.52 1.41 1.27 1.21 1.27 1.38 1.48 1.44 1.19
0.36 0.39 0.44 0.44 0.42 0.43 0.51 0.57 0.60 0.67 0.76 0.82 0.89 1.02 1.08 1.20 1.29 1.32 1.37 1.48 1.50 1.46 1.45 1.48 1.56 1.62 1.65 1.68 1.71 1.70 1.62 1.54 1.53 1.48 1.40 1.31 1.20 1.15 1.17 1.27 1.44 1.68 1.62
0.29 0.32 0.38 0.39 0.37 0.36 0.37 0.40 0.48 0.61 0.69 0.69 0.76 0.84 0.92 0.98 1.07 1.15 1.21 1.25 1.23 1.21 1.21 1.26 1.32 1.37 1.40 1.44 1.53 1.54 1.52 1.50 1.43 1.39 1.35 1.29 1.21 1.19 1.20 1.26 1.34 1.48 1.60
0.26 0.27 0.30 0.33 0.37 0.34 0.31 0.32 0.39 0.51 0.58 0.61 0.66 0.71 0.77 0.82 0.86 0.91 0.96 1.00 1.00 1.01 1.03 1.07 1.15 1.21 1.24 1.24 1.30 1.38 1.40 1.39 1.34 1.31 1.30 1.26 1.20 1.20 1.18 1.21 1.26 1.31 1.39
0.26 0.25 0.24 0.26 0.33 0.33 0.33 0.32 0.36 0.43 0.51 0.56 0.60 0.66 0.68 0.70 0.75 0.80 0.80 0.80 0.82 0.83 0.82 0.82 0.89 0.95 1.00 1.03 1.05 1.10 1.16 1.21 1.20 1.22 1.25 1.25 1.26 1.30 1.31 1.31 1.30 1.27 1.25
0.28 0.27 0.24 0.23 0.28 0.31 0.32 0.31 0.34 0.40 0.46 0.52 0.55 0.60 0.63 0.63 0.66 0.70 0.73 0.74 0.78 0.83 0.84 0.77 0.75 0.79 0.81 0.88 0.91 0.91 0.96 1.01 1.05 1.09 1.16 1.19 1.24 1.32 1.33 1.32 1.27 1.22 1.17
0.30 0.30 0.32 0.28 0.27 0.29 0.28 0.27 0.30 0.35 0.39 0.46 0.51 0.53 0.60 0.62 0.62 0.63 0.65 0.68 0.71 0.77 0.79 0.79 0.77 0.76 0.77 0.82 0.88 0.92 0.93 0.98 1.02 1.04 1.07 1.09 1.11 1.12 1.11 1.11 1.09 1.10 1.11
0.27 0.28 0.30 0.32 0.30 0.29 0.28 0.25 0.26 0.30 0.34 0.40 0.45 0.48 0.54 0.59 0.63 0.63 0.64 0.66 0.67 0.72 0.74 0.77 0.79 0.79 0.79 0.84 0.92 0.97 0.98 1.00 1.05 1.09 1.06 1.01 1.00 0.95 0.94 0.93 0.93 0.94 1.02
0.25 0.26 0.24 0.27 0.27 0.29 0.30 0.30 0.28 0.28 0.31 0.35 0.39 0.43 0.47 0.51 0.58 0.62 0.63 0.64 0.67 0.73 0.77 0.83 0.88 0.90 0.95 1.09 1.11 1.07 1.05 1.03 1.00 0.97 0.93 0.90 0.90 0.87 0.90 0.91 0.90 0.96 1.07
0.18 0.20 0.20 0.23 0.24 0.24 0.27 0.28 0.28 0.27 0.30 0.33 0.35 0.40 0.45 0.49 0.53 0.61 0.66 0.72 0.76 0.84 0.90 0.94 1.02 1.05 1.08 1.14 1.05 1.02 0.97 0.99 0.95 0.88 0.81 0.76 0.71 0.73 0.69 0.76 0.84 0.86 0.93
0.15 0.13 0.15 0.15 0.16 0.18 0.21 0.25 0.26 0.28 0.29 0.32 0.39 0.42 0.46 0.55 0.62 0.64 0.71 0.81 0.87 0.94 1.01 1.00 1.02 1.04 1.04 1.04 0.96 0.93 0.83 0.79 0.78 0.74 0.69 0.63 0.62 0.62 0.66 0.73 0.79 0.70 0.66
0.17 0.15 0.14 0.15 0.15 0.16 0.20 0.25 0.30 0.31 0.30 0.32 0.39 0.45 0.48 0.60 0.69 0.69 0.73 0.81 0.87 0.94 0.97 0.96 0.91 0.85 0.83 0.84 0.77 0.75 0.68 0.67 0.65 0.63 0.64 0.66 0.60 0.67 0.81 0.83 0.81 0.68 0.56
0.17 0.19 0.18 0.17 0.20 0.22 0.24 0.30 0.35 0.42 0.44 0.43 0.48 0.55 0.62 0.72 0.77 0.75 0.75 0.75 0.76 0.78 0.76 0.73 0.69 0.64 0.60 0.63 0.61 0.59 0.53 0.54 0.55 0.57 0.61 0.69 0.67 0.75 0.86 0.78 0.75 0.68 0.58
0.20 0.21 0.21 0.23 0.26 0.28 0.29 0.33 0.38 0.50 0.57 0.58 0.60 0.63 0.70 0.73 0.73 0.72 0.69 0.65 0.61 0.61 0.59 0.58 0.57 0.54 0.53 0.55 0.53 0.53 0.47 0.48 0.53 0.55 0.54 0.57 0.75 0.84 0.83 0.75 0.63 0.67 0.72
0.20 0.23 0.25 0.27 0.30 0.35 0.40 0.41 0.45 0.51 0.56 0.59 0.60 0.61 0.62 0.63 0.66 0.65 0.63 0.59 0.57 0.56 0.55 0.55 0.57 0.57 0.57 0.56 0.56 0.58 0.60 0.62 0.57 0.51 0.47 0.53 0.73 0.73 0.68 0.62 0.66 0.78 0.75
0.21 0.25 0.29 0.32 0.36 0.38 0.41 0.44 0.43 0.43 0.46 0.50 0.52 0.51 0.49 0.50 0.51 0.53 0.54 0.54 0.53 0.53 0.55 0.56 0.58 0.58 0.58 0.61 0.65 0.64 0.71 0.72 0.61 0.58 0.65 0.68 0.65 0.58 0.55 0.59 0.64 0.65 0.61
0.19 0.22 0.25 0.27 0.29 0.31 0.32 0.34 0.32 0.32 0.35 0.37 0.41 0.43 0.42 0.41 0.42 0.43 0.46 0.48 0.49 0.49 0.50 0.52 0.56 0.56 0.54 0.55 0.61 0.64 0.68 0.71 0.68 0.69 0.72 0.66 0.57 0.52 0.52 0.56 0.57 0.55 0.58
0.18 0.19 0.21 0.23 0.25 0.25 0.25 0.26 0.26 0.26 0.29 0.31 0.33 0.34 0.38 0.39 0.41 0.42 0.45 0.49 0.49 0.55 0.55 0.51 0.50 0.54 0.54 0.55 0.69 0.72 0.69 0.74 0.78 0.76 0.62 0.54 0.51 0.50 0.48 0.47 0.48 0.52 0.59
0.19 0.19 0.19 0.22 0.26 0.26 0.22 0.22 0.22 0.23 0.28 0.31 0.32 0.33 0.36 0.38 0.39 0.40 0.44 0.49 0.51 0.55 0.58 0.58 0.55 0.50 0.55 0.63 0.71 0.75 0.80 0.83 0.82 0.72 0.60 0.56 0.51 0.49 0.46 0.45 0.48 0.50 0.56